Miscellaneous Local Product
Issued by NWS North Platte, NE

Home | Current Version | Previous Version | Text Only | Print | Product List | Glossary On
Versions: 1 2 3 4 5 6 7 8 9 10 11 12 13 14 15 16 17 18 19 20 21 22 23 24 25 26 27 28 29 30 31 32 33 34 35 36 37 38 39 40 41 42 43 44 45 46 47 48 49 50
722
AXUS43 KLBF 161910
MISLBF


WESTERN AND NORTH CENTRAL NEBRASKA HOURLY WEATHER ROUNDUP
NATIONAL WEATHER SERVICE NORTH PLATTE NE
100 PM CST TUE JAN 16 2018

NOTE: "FAIR" INDICATES FEW OR NO CLOUDS BELOW 12,000 FEET WITH NO
SIGNIFICANT WEATHER AND/OR OBSTRUCTIONS TO VISIBILITY.

NOTE: STATIONS NOT REPORTING VARIABLES SUCH AS SKY/WEATHER OR
PRESSURE ARE PROVIDED BY RAWS AND APRS NETWORKS AND ARE NOT UNDER
NATIONAL WEATHER SERVICE QUALITY CONTROL.

...OBSERVATIONS IN AND NEAR THE EASTERN PANHANDLE OF NEBRASKA...

CITY           SKY/WX    TMP DP  RH WIND       PRES   REMARKS
PINE RIDGE     SUNNY     20   0  41 S14       30.45F WCI   7
GORDON         FAIR      17  -3  42 SW14      30.45F WCI   3
CHADRON        SUNNY     21   4  47 CALM      30.44F
ALLIANCE       SUNNY     14   5  67 S3        30.44F
SIDNEY         SUNNY     21   7  54 S10       30.44F WCI  10
$$

...OBSERVATIONS IN NORTHERN NEBRASKA AND FAR SOUTHERN SOUTH DAKOTA...

CITY           SKY/WX    TMP DP  RH WIND       PRES   REMARKS
WINNER         FAIR       9  -3  58 S8        30.62F WCI  -3
VALENTINE      SUNNY     14  -2  49 SW12      30.56F WCI   0
AINSWORTH      SUNNY     10  -2  58 SW6       30.58F WCI   0
O`NEILL        SUNNY      5  -3  69 W5        30.66F WCI  -4
THEDFORD       SUNNY     11  -4  49 SW9       30.57F WCI  -2
BROKEN BOW     SUNNY      6  -4  63 W7        30.62F WCI  -6
ORD            SUNNY      9  -2  61 N5        30.66F WCI   1
ALBION         SUNNY     11  -1  60 NW7       30.68F WCI   0
VALENTINE NWR    N/A      9  -9  44 SW7         N/A  WCI  -2
HALSEY           N/A     13  -9  37 SW3         N/A
BUTTE            N/A      4  -4  69 W5          N/A  WCI  -5
CHAMBERS         N/A     10  -1  60 CALM        N/A
EWING            N/A      5  -2  73 NW7         N/A  WCI  -7
$$

...OBSERVATIONS IN SOUTHWEST NEBRASKA AND FAR NORTHEAST COLORADO...

CITY           SKY/WX    TMP DP  RH WIND       PRES   REMARKS
WRAY           FAIR      21   1  42 SW3       30.54F
HOLYOKE        FAIR      21   5  49 S5        30.52F WCI  15
IMPERIAL       SUNNY     13  -6  42 SW5       30.56F WCI   5
OGALLALA       SUNNY     15   2  56 SW6       30.55F WCI   7
NORTH PLATTE   SUNNY     12  -2  53 W7        30.61F WCI   1
MCCOOK         SUNNY     12  -1  56 W7        30.65F WCI   1
LEXINGTON      SUNNY     10  -2  59 NW6       30.66F WCI   0
STAPLETON        N/A     11  -1  58 CALM        N/A
GOTHENBURG       N/A     11  -3  54 CALM        N/A
CALLAWAY         N/A      9   1  68 W7          N/A  WCI  -2
$$

...OBSERVATIONS IN CENTRAL LINCOLN COUNTY AREA...

CITY           SKY/WX    TMP DP  RH WIND       PRES   REMARKS
N.P. AIRPORT   SUNNY     12  -2  53 W7        30.61F WCI   1
N.P. DOWNTOWN    N/A     10  -2  57 CALM        N/A
N.P. SOUTHEAST   N/A     10  -3  55 SW3         N/A
N.P. HILLCREST   N/A      9  -2  60 W7          N/A  WCI  -2
$$

...SOME OBSERVATIONS FROM AROUND THE REGION...

CITY           SKY/WX    TMP DP  RH WIND       PRES   REMARKS
DENVER         MOSUNNY   28  -1  28 SE5       30.38F WCI  23
BERTHOUD PASS  FAIR      12   0  57 NW14G20   30.28F WCI  -3
GRAND JUNCTION SUNNY     36  14  40 S7        30.41F WCI  30
LARAMIE        SUNNY     29  -7  20 SE6       30.29F WCI  23
CHEYENNE       SUNNY     30  -5  21 S9        30.32F WCI  22
CASPER         SUNNY     30   5  34 SW23      30.30F WCI  17
BISMARCK       SUNNY      1 -10  60 VRB6      30.54F WCI -10
RAPID CITY     SUNNY     13   3  64 SE13      30.39F WCI  -2
PIERRE         SUNNY      8  -7  50 SW6       30.62F WCI  -2
SIOUX FALLS    SUNNY      2  -4  76 W9        30.69F WCI -13
OMAHA          MOSUNNY    6  -3  66 N7        30.74F WCI  -6
GRAND ISLAND   SUNNY      7   0  73 N7        30.70F WCI  -5
SCOTTSBLUFF    SUNNY      5  -1  76 SE3       30.45F
KANSAS CITY    PTSUNNY    7  -2  66 NW14      30.72F WCI -10
HILL CITY      SUNNY     13   0  56 NW7       30.71F WCI   3
WICHITA        PTSUNNY   12   3  67 NW7       30.76F WCI   1
DODGE CITY     SUNNY     15  -4  42 NW13      30.67F WCI   1
OKLAHOMA CITY  MOSUNNY   16  -4  41 NW10      30.76F WCI   4
DALLAS         MOSUNNY   26   0  32 N15G23    30.75F WCI  14
AMARILLO       SUNNY     21  -3  35 N10       30.62F WCI  10
$$




USA.gov is the U.S. government's official web portal to all federal, state and local government web resources and services.